This demonstration page uses our WeatherBlox Daily Observations layout. Learn more.

39.92423, -83.80882

Hourly Observations for April 20, 2019

Temp ( °F °C ) Dew Point ( °F °C ) Humidity (%) Winds ( mph kmh ) Pressure ( in mb ) Visibility ( mi km ) Precip ( " mm )
12:56 am 00:56 Cloudy 41 5 40 4.4 96 96 N 20 31 29.51 999 10 16.0934 0.01 0.254
1:56 am 01:56 Cloudy with Rain 41 5 40 4.4 96 96 NNE 21 33 29.47 998 5 8.0467 0 0.0254
2:56 am 02:56 Cloudy with Light Rain 41 5 40 4.4 96 96 NNE 23 37 29.44 997 10 16.0934 0 0
3:32 am 03:32 Cloudy with Light Rain 41 5 39 4 93 93 N 26 43 29.44 997 1.75 2.816345 0 0
3:46 am 03:46 Cloudy with Light Rain 41 5 39 4 93 93 NNE 31 50 29.43 997 3 4.82802 0 0
3:56 am 03:56 Cloudy with Light Rain 41 5 41 5 100 100 SE 21 33 29.51 999 9 14.48406 0 0
4:03 am 04:03 Cloudy with Heavy Rain 41 5 41 5 100 100 NNE 13 20 29.51 999 4 6.43736 0 0
4:09 am 04:09 Cloudy with Light Rain 43 6 39 4 87 87 ESE 15 24 29.53 1000 1.75 2.816345 0 0
4:17 am 04:17 Cloudy with Light Rain 41 5 39 4 93 93 ENE 15 24 29.51 999 2 3.21868 0 0
4:20 am 04:20 Cloudy with Light Rain 41 5 39 4 93 93 NE 16 26 29.51 999 3 4.82802 0 0
4:24 am 04:24 Cloudy with Light Rain 41 5 39 4 93 93 NE 14 22 29.51 999 4 6.43736 0 0
4:38 am 04:38 Cloudy with Light Rain 41 5 41 5 100 100 NNE 14 22 29.51 999 8 12.87472 0 0
4:53 am 04:53 Cloudy with Light Rain 41 5 41 5 100 100 NNE 13 20 29.51 999 10 16.0934 0 0
4:56 am 04:56 Cloudy with Light Rain 41 5 41 5 100 100 NNE 14 22 29.49 999 10 16.0934 0 0
5:10 am 05:10 Cloudy with Light Rain 41 5 41 5 100 100 N 21 33 29.47 998 9 14.48406 0 0
5:18 am 05:18 Cloudy with Light Rain 41 5 39 4 93 93 N 14 22 29.48 998 10 16.0934 0 0
5:56 am 05:56 Cloudy with Light Rain 41 5 40 4.4 96 96 NNE 14 22 29.48 998 10 16.0934 0 0
6:56 am 06:56 Cloudy with Light Rain 41 5 40 4.4 96 96 NE 10 17 29.49 999 4 6.43736 0 0.0254
7:56 am 07:56 Cloudy with Light Rain 41 5 41 5 100 100 NE 14 22 29.52 1000 10 16.0934 0 0.0254
8:56 am 08:56 Cloudy with Light Rain 41 5 41 5 100 100 NE 13 20 29.54 1000 4 6.43736 0.01 0.254
9:24 am 09:24 Cloudy with Light Rain 43 6 43 6 100 100 NE 14 22 29.56 1001 2.5 4.02335 0 0.0254
9:43 am 09:43 Cloudy with Light Rain 43 6 43 6 100 100 NE 14 22 29.57 1001 4 6.43736 0 0.0254
9:56 am 09:56 Cloudy with Light Rain 42 5.6 42 5.6 100 100 NE 12 19 29.57 1001 5 8.0467 0 0.0254
10:30 am 10:30 Cloudy with Light Rain 43 6 43 6 100 100 NE 12 19 29.58 1002 7 11.26538 0 0.0254
10:56 am 10:56 Cloudy 44 6.7 43 6.1 96 96 NE 12 19 29.58 1002 10 16.0934 0 0.0254
11:56 am 11:56 Cloudy 44 6.7 43 6.1 96 96 NNE 8 13 29.61 1003 9 14.48406 0 0
12:37 pm 12:37 Cloudy with Light Rain 45 7 45 7 100 100 N 9 15 29.63 1003 2 3.21868 0 0.0254
12:56 pm 12:56 Cloudy with Light Rain 45 7.2 44 6.7 97 97 N 8 13 29.63 1003 2.5 4.02335 0 0.0254
1:05 pm 13:05 Cloudy with Light Rain 45 7 45 7 100 100 N 6 9 29.63 1003 3 4.82802 0 0.0254
1:40 pm 13:40 Cloudy 46 8 45 7 93 93 N 6 9 29.64 1004 10 16.0934 0 0.0254
1:56 pm 13:56 Cloudy 47 8.3 45 7.2 93 93 N 7 11 29.63 1004 10 16.0934 0 0.0254
2:44 pm 14:44 Cloudy with Light Rain 46 8 45 7 93 93 NW 10 17 29.66 1004 2.5 4.02335 0.01 0.254
2:56 pm 14:56 Cloudy with Light Rain 46 7.8 45 7.2 96 96 NNW 9 15 29.66 1005 2.5 4.02335 0.01 0.254
3:21 pm 15:21 Cloudy with Light Rain 46 8 46 8 100 100 NNW 10 17 29.67 1005 3 4.82802 0 0.0254
3:30 pm 15:30 Cloudy with Light Rain 46 8 45 7 93 93 NW 12 19 29.67 1005 2.5 4.02335 0 0.0254
3:49 pm 15:49 Cloudy with Light Rain 46 8 46 8 100 100 NNW 12 19 29.68 1005 4 6.43736 0 0.0254
3:56 pm 15:56 Cloudy with Light Rain 47 8.3 46 7.8 97 97 NNW 15 24 29.67 1005 10 16.0934 0 0.0254
4:56 pm 16:56 Cloudy 47 8.3 45 7.2 93 93 NNW 13 20 29.69 1005 10 16.0934 0 0.0254
5:56 pm 17:56 Cloudy 47 8.3 44 6.7 90 90 NW 13 20 29.71 1006 10 16.0934 0 0
6:56 pm 18:56 Cloudy 45 7.2 43 6.1 93 93 NW 12 19 29.75 1007 10 16.0934 0 0
7:31 pm 19:31 Cloudy 43 6 43 6 100 100 NW 12 19 29.78 1008 10 16.0934 0 0
7:56 pm 19:56 Cloudy 43 6.1 42 5.6 97 97 NW 9 15 29.78 1009 10 16.0934 0 0
8:56 pm 20:56 Cloudy 42 5.6 41 5 96 96 WNW 9 15 29.81 1010 10 16.0934 0 0
9:56 pm 21:56 Cloudy 42 5.6 41 5 96 96 NW 8 13 29.85 1011 10 16.0934 0 0
10:18 pm 22:18 Cloudy 43 6 39 4 87 87 NNW 6 9 29.86 1011 10 16.0934 0 0
10:56 pm 22:56 Cloudy 42 5.6 40 4.4 92 92 NW 7 11 29.86 1011 10 16.0934 0 0
11:56 pm 23:56 Cloudy 42 5.6 40 4.4 92 92 NW 7 11 29.87 1012 10 16.0934 0 0

Powered by AerisWeather